TimeCDT,TemperatureF,Dew PointF,Humidity,Sea Level PressureIn,VisibilityMPH,Wind Direction,Wind SpeedMPH,Gust SpeedMPH,PrecipitationIn,Events,Conditions,WindDirDegrees,DateUTC
12:53 AM,72.0,69.1,91,30.02,10.0,Calm,Calm,-,N/A,,Clear,0,2013-10-02 05:53:00
1:53 AM,72.0,69.1,91,30.02,10.0,Calm,Calm,-,N/A,,Clear,0,2013-10-02 06:53:00
2:53 AM,72.0,69.1,91,30.02,10.0,Calm,Calm,-,N/A,,Partly Cloudy,0,2013-10-02 07:53:00
3:53 AM,72.0,69.1,91,30.01,10.0,SSE,3.5,-,N/A,,Partly Cloudy,150,2013-10-02 08:53:00
4:53 AM,72.0,69.1,91,30.02,10.0,SE,3.5,-,N/A,,Scattered Clouds,140,2013-10-02 09:53:00
5:53 AM,72.0,69.1,91,30.03,10.0,SSE,3.5,-,N/A,,Overcast,150,2013-10-02 10:53:00
6:53 AM,72.0,69.1,91,30.04,8.0,South,3.5,-,N/A,,Partly Cloudy,170,2013-10-02 11:53:00
7:53 AM,72.0,70.0,93,30.05,8.0,Calm,Calm,-,N/A,,Clear,0,2013-10-02 12:53:00
8:53 AM,73.9,71.1,91,30.06,10.0,SSE,3.5,-,N/A,,Clear,160,2013-10-02 13:53:00
9:53 AM,79.0,71.1,77,30.07,10.0,SE,4.6,-,N/A,,Clear,140,2013-10-02 14:53:00
10:53 AM,81.0,70.0,69,30.07,10.0,SSE,6.9,-,N/A,,Mostly Cloudy,150,2013-10-02 15:53:00
11:53 AM,81.0,69.1,67,30.06,10.0,SE,5.8,-,N/A,,Overcast,130,2013-10-02 16:53:00
12:53 PM,84.9,70.0,61,30.04,10.0,ESE,8.1,-,N/A,,Mostly Cloudy,120,2013-10-02 17:53:00
1:53 PM,84.9,64.0,49,30.01,10.0,South,5.8,-,N/A,,Partly Cloudy,170,2013-10-02 18:53:00
2:53 PM,86.0,63.0,46,29.98,10.0,ESE,5.8,-,N/A,,Clear,120,2013-10-02 19:53:00
3:53 PM,86.0,64.0,48,29.98,10.0,Variable,6.9,-,N/A,,Mostly Cloudy,0,2013-10-02 20:53:00
4:53 PM,87.1,64.9,48,29.97,10.0,ESE,6.9,-,N/A,,Clear,120,2013-10-02 21:53:00
5:53 PM,82.9,66.9,58,29.96,10.0,East,5.8,-,N/A,,Clear,80,2013-10-02 22:53:00
6:53 PM,79.0,69.1,72,29.97,10.0,Calm,Calm,-,N/A,,Clear,0,2013-10-02 23:53:00
7:53 PM,75.9,69.1,79,29.98,10.0,East,3.5,-,N/A,,Clear,80,2013-10-03 00:53:00
8:53 PM,75.0,69.1,82,29.99,10.0,East,4.6,-,N/A,,Clear,80,2013-10-03 01:53:00
9:53 PM,75.0,68.0,79,30.00,10.0,ESE,3.5,-,N/A,,Clear,110,2013-10-03 02:53:00
10:53 PM,73.9,68.0,82,30.01,10.0,Calm,Calm,-,N/A,,Clear,0,2013-10-03 03:53:00
11:53 PM,73.0,68.0,84,30.00,10.0,Calm,Calm,-,N/A,,Clear,0,2013-10-03 04:53:00